Regional Weather Roundup
Issued by NWS

Home | Current Version | Previous Version | Graphics & Text | Print | Product List | Glossary On
Versions: 1 2 3 4 5 6 7 8 9 10 11 12 13 14 15 16 17 18 19 20 21 22 23 24 25 26 27 28 29 30 31 32 33 34 35 36 37 38 39 40 41 42 43 44 45 46 47 48 49 50
000
ASUS43 KMKX 290400
RWRWI

WISCONSIN REGIONAL WEATHER ROUNDUP
NATIONAL WEATHER SERVICE MILWAUKEE/SULLIVAN WI
1100 PM CDT WED JUN 28 2017

NOTE: "FAIR" INDICATES FEW OR NO CLOUDS BELOW 12,000 FEET WITH NO
SIGNIFICANT WEATHER AND/OR OBSTRUCTIONS TO VISIBILITY.

WIZ001-002-006>008-014>016-023>028-290500-
NORTHWEST WISCONSIN

CITY           SKY/WX    TMP DP  RH WIND       PRES   REMARKS
SUPERIOR ARPT  NOT AVBL
ASHLAND        CLOUDY    66  65  96 CALM      29.50R
HAYWARD        LGT RAIN  68  65  90 SW12      29.53R
SIREN          CLOUDY    66  62  86 W7        29.55R
CUMBERLAND     CLOUDY    66  63  88 SW8       29.56R
RICE LAKE      CLOUDY    68  65  91 S7        29.57S
CHETEK         MOCLDY    67  66  97 SW5       29.56S
LADYSMITH      CLOUDY    67  66  96 S8        29.58R
EAU CLAIRE     NOT AVBL
MENOMONIE      CLOUDY    68  65  92 S12       29.58S
NEW RICHMOND   CLOUDY    69  59  72 W12       29.58R
OSCEOLA        CLOUDY    69  61  74 W10G17    29.60R
$$

WIZ003>005-009-010-017-018-290500-
NORTH CENTRAL WISCONSIN

CITY           SKY/WX    TMP DP  RH WIND       PRES   REMARKS
MANITOWISH WTR CLOUDY    64  64 100 S7        29.58S
ARBOR VITAE    CLOUDY    65  64  96 S6        29.59S
WOODRUFF       CLOUDY    65  64  96 S6        29.59S
RHINELANDER    CLOUDY    64  64 100 S6        29.63R
EAGLE RIVER    CLOUDY    64  64 100 SE7       29.62R
LAND O LAKES   CLOUDY    64  64 100 S5        29.63R
PHILLIPS       CLOUDY    65  65 100 SW7       29.58R
TOMAHAWK       NOT AVBL
MEDFORD        CLOUDY    65  64  96 S8        29.61R
MERRILL        CLOUDY    66  66 100 CALM      29.62R
$$

WIZ029-030-035-036-043>047-290500-
CENTRAL WISCONSIN

CITY           SKY/WX    TMP DP  RH WIND       PRES   REMARKS
WAUSAU         CLOUDY    66  65  96 S7        29.61R
MOSINEE        CLOUDY    64  64 100 S8        29.63R FOG
MARSHFIELD     CLOUDY    65  63  93 CALM      29.61S FOG
STEVENS POINT  LGT RAIN  65  65 100 S9        29.63S
WAUPACA        CLOUDY    68  68  99 S9        29.65R
WAUTOMA        LGT RAIN  66  64  93 S8        29.65F
WISC RAPIDS    CLOUDY    67  65  93 S7        29.65R
CAMP DOUGLAS   NOT AVBL
$$

WIZ011>013-019>022-031-037>040-048>050-290500-
NORTHEAST WISCONSIN

CITY           SKY/WX    TMP DP  RH WIND       PRES   REMARKS
ANTIGO         CLOUDY    64  64 100 S8        29.64S FOG
SHAWANO        CLOUDY    68  64  88 S5        29.64R
OCONTO         CLOUDY    63  62  96 S3        29.64R
STURGEON BAY     N/A     60  58  92 S13       29.66R
GREEN BAY      CLOUDY    66  64  93 S10       29.65R
MANITOWOC      NOT AVBL
APPLETON       MOCLDY    64  64 100 S16       29.66R
CLINTONVILLE   CLOUDY    64  64 100 S3        29.64R
OSHKOSH        CLOUDY    65  61  87 S15G23    29.66R
$$

WIZ032>034-041-042-053>061-290500-
SOUTHWEST WISCONSIN

CITY           SKY/WX    TMP DP  RH WIND       PRES   REMARKS
LA CROSSE      LGT RAIN  70  66  87 S7        29.64R
SPARTA         LGT RAIN  65  64  97 SW6       29.63S
VIROQUA        CLOUDY    65  65 100 NE5       29.72R
BOSCOBEL       CLOUDY    69  66  90 NW5       29.66S
PRAIRIE DU CHI CLOUDY    66  65  96 NE5       29.64S
PLATTEVILLE    CLOUDY    67  67  99 SE6       29.68F
$$

WIZ056-057-062-063-064-067-068-290500-
SOUTH CENTRAL WISCONSIN

CITY           SKY/WX    TMP DP  RH WIND       PRES   REMARKS
REEDSBURG      CLOUDY    67  67 100 W3        29.69R
BARABOO/DELLS  CLOUDY    67  64  90 SW10      29.69R
LONE ROCK      NOT AVBL
MINERAL POINT  CLOUDY    68  68 100 SE7       29.69F
MADISON        CLOUDY    67  66  97 S12       29.70F
MIDDLETON      CLOUDY    68  68 100 S6        29.71F
WATERTOWN      CLOUDY    64  64 100 S7        29.72F
MONROE         CLOUDY    64  63  94 S6        29.72F
JANESVILLE     LGT RAIN  66  66 100 CALM      29.74F
$$

WIZ051-052-058>065-066-070>072-290500-
SOUTHEAST WISCONSIN

CITY           SKY/WX    TMP DP  RH WIND       PRES   REMARKS
MILWAUKEE      TSTM      66  64  93 S15G24    29.79R
WAUKESHA       CLOUDY    63  61  94 S9        29.80
MILWAUKEE/TIMM CLOUDY    63  61  94 S15       29.79R
RACINE         RAIN      65  63  93 S12       29.84R FOG
KENOSHA        TSTM      65  63  93 SW10      29.84R FOG
FOND DU LAC    CLOUDY    67  61  81 S17G25    29.68R
SHEBOYGAN      CLOUDY    64  63  96 S12       29.71R
WEST BEND      LGT RAIN  63  63 100 S14G22    29.74R
JUNEAU         CLOUDY    64  63  94 S12G23    29.73R
$$

LSZ147-162-290500-
LAKE SUPERIOR

STATION/POSITION TIME  TEMP    WIND        PRES    WAVE
                       AIR SEA DIR/SP/G            HT/PER
                 (UTC) (F)     (DEG/KT/KT) (MB)    (FT/S)
W MID LAKE BUOY  0250   45 39   60/ 16/ 19 1001.2F   2/ 3
DEVILS ISLAND    0300   53      70/ 16/ 18  999.7F
SAXON HARBOR     0330   67     200/  3/  5  999.0S
$$

LMZ867-665-643>646-290500-
LAKE MICHIGAN

STATION/POSITION TIME  TEMP    WIND        PRES    WAVE
                       AIR SEA DIR/SP/G            HT/PER
                 (UTC) (F)     (DEG/KT/KT) (MB)    (FT/S)
CHAMBERS ISLAND  0340   62     140/  9/ 15 1003.4S
S GREEN BAY BUOY 0300   65     160/ 17/ 21 1002.5
N MID LAKE BUOY  0250   57 54  180/ 10/ 12 1005.8R   6/ 7
NORTHPORT PIER   0340   61     160/  9/ 16 1004.1F
KEWAUNEE LAKESHO 0330   54     180/ 13/ 17 1004.3R
SHEBOYGAN LAKESH 0300   65     200/  9/ 11 1005.6R
PORT WASHINGTON  0340   58     200/  8/ 13 1008.1S
ATWATER BUOY     0209   58 48  160/ 17/ 21 1005.8F
MILWAUKEE LAKESH 0330   65     200/ 16/ 18   N/A
S MID LAKE BUOY  0250   63 60  340/ 21/ 27 1010.4R   3/ 6
KENOSHA   LAKESH 0300   65     210/  3/  7 1010.2
$$

TC  - TEMPERATURE IN CELSIUS
VSB - VISIBILITY IN STATUTE MILES
WCI - WIND CHILL INDEX
HX  - HEAT INDEX





USA.gov is the U.S. government's official web portal to all federal, state and local government web resources and services.